[[{"header":{"parameterUnit":"m.s-1","parameterCategory":1,"la1":30.2991,"la2":30.254,"lo1":-89.0895,"lo2":-89.0444,"dy":0.0017,"dx":0.0017,"nx":28,"ny":28,"refTime":"2024-03-13T09:00:00:Z","depth":0,"parameterNumber":2,"parameterNumberName":"U-component_of_WINDS"},"data":[0,0,0,0,0,0,0,0,0,0,0,0,0,0,0,0,0,0,0,0,0,0,0,0,0,0,0,0,0,0,0,0,0,0,0,0,0,0,0,0,0,0,0,0,0,0,0,0,0,0,0,0,0,0,0,0,0,0,-4.8386,-4.8387,0,-4.8504,-4.8505,-4.8506,-4.8504,-4.8503,-4.8501,-4.8499,-4.8619,-4.8623,-4.8628,0,0,0,0,0,0,0,0,0,0,0,0,0,-4.8156,-4.8161,-4.8385,-4.8387,-4.8388,-4.8504,-4.8505,-4.8507,-4.8504,-4.8503,-4.8501,-4.8499,-4.8617,-4.8622,-4.8628,0,0,0,0,0,0,0,0,0,0,0,0,0,-4.8263,-4.8162,-4.8385,-4.8401,-4.8404,-4.8503,-4.8505,-4.8507,-4.8505,-4.8502,-4.85,-4.8498,-4.8615,-4.8622,-4.8629,-4.8719,0,0,-4.865,-4.8653,0,0,0,0,0,0,0,0,-4.8257,-4.8272,-4.8397,-4.84,-4.8403,-4.8487,-4.8468,-4.8578,-4.8505,-4.8466,-4.8499,-4.8497,-4.8576,-4.8586,-4.8614,-4.8725,-4.873,-4.8651,-4.8655,-4.8658,-4.866,0,0,0,0,0,0,0,-4.825,-4.8267,-4.8432,-4.8399,-4.8403,-4.8402,-4.8415,-4.8489,-4.8533,-4.847,-4.847,-4.8484,-4.8578,-4.8607,-4.8617,-4.8732,-4.8651,-4.8657,-4.8661,-4.8664,-4.8923,-4.8925,0,0,0,0,0,0,-4.8239,-4.826,-4.8428,-4.8436,-4.8323,-4.8408,-4.8422,-4.8462,-4.8532,-4.8541,-4.8486,-4.8483,-4.8596,-4.8608,-4.8621,-4.873,-4.8658,-4.8664,-4.8668,-4.892,-4.8923,-4.8926,0,0,0,0,0,0,-4.8234,-4.8254,-4.8424,-4.8348,-4.837,-4.8415,-4.846,-4.8466,-4.8495,-4.8545,-4.8552,-4.8508,-4.8595,-4.8611,-4.8695,-4.8734,-4.8668,-4.8674,-4.8917,-4.8921,-4.8925,-4.895,0,0,0,0,0,0,-4.8228,-4.8253,-4.8288,-4.8349,-4.8374,-4.8496,-4.8462,-4.847,-4.8508,-4.8505,-4.8567,-4.8575,-4.8594,-4.8684,-4.8702,-4.8742,-4.8679,-4.8914,-4.8919,-4.8924,-4.8946,-4.8954,-4.8962,0,0,0,0,0,-4.822,-4.829,-4.8289,-4.831,-4.8419,-4.8498,-4.8512,-4.8533,-4.8511,-4.8546,-4.8578,-4.8573,-4.8728,-4.8693,-4.8713,-4.8756,-4.8911,-4.8917,-4.8923,-4.8942,-4.8953,-4.8962,0,0,0,0,0,0,-4.823,-4.8298,-4.8298,-4.839,-4.8439,-4.8498,-4.8542,-4.8544,-4.8599,-4.8595,-4.8618,-4.8632,-4.8716,-4.8745,-4.8705,-4.8847,-4.8817,-4.8827,-4.8824,-4.8835,-4.8843,-4.8832,-4.8685,0,0,0,0,0,-4.8244,-4.8303,-4.8359,-4.8435,-4.8459,-4.8497,-4.8533,-4.8545,-4.8596,-4.8616,-4.8654,-4.8703,-4.8762,-4.8801,-4.8859,-4.8952,-4.8964,-4.8991,-4.8999,-4.9005,-4.9013,-4.9063,-4.9075,-4.8946,-4.8946,-4.8946,0,0,-4.8271,-4.8315,-4.8351,-4.8438,-4.8477,-4.8537,-4.8514,-4.8579,-4.8624,-4.8625,-4.8706,-4.8737,-4.8793,-4.8881,-4.8922,-4.8908,-4.9052,-4.9013,-4.9018,-4.9022,-4.9071,-4.9083,-4.9094,-4.895,-4.895,-4.8949,0,0,-4.8351,-4.8392,-4.8458,-4.8498,-4.8558,-4.8583,-4.86,-4.8659,-4.8679,-4.8762,-4.8764,-4.8818,-4.892,-4.896,-4.8994,-4.9092,-4.9089,-4.911,-4.915,-4.9199,-4.9209,-4.9218,-4.9251,-4.9262,-4.9118,-4.9118,-4.9118,0,-4.8376,-4.8468,-4.8492,-4.8558,-4.8595,-4.8602,-4.8669,-4.8707,-4.8782,-4.8808,-4.8792,-4.892,-4.8959,-4.9056,-4.908,-4.9108,-4.9126,-4.9101,-4.9206,-4.9215,-4.9224,-4.9255,-4.9268,-4.912,-4.912,-4.912,-4.9119,0,-4.8496,-4.856,-4.8607,-4.868,-4.8724,-4.879,-4.8823,-4.8865,-4.8874,-4.8901,-4.8985,-4.9032,-4.9098,-4.9124,-4.9133,-4.9223,-4.9212,-4.9201,-4.917,-4.9238,-4.9267,-4.928,-4.9123,-4.9122,-4.9122,-4.9121,0,0,-4.8582,-4.867,-4.8686,-4.8719,-4.8787,-4.8836,-4.8904,-4.897,-4.9004,-4.9057,-4.9112,-4.92,-4.919,-4.9229,-4.9244,-4.9287,-4.9359,-4.9271,-4.9272,-4.9283,-4.9458,-4.9463,-4.9477,-4.9359,-4.9362,-4.9364,-4.9453,0,-4.8667,-4.8786,-4.881,-4.8912,-4.8971,-4.8979,-4.9037,-4.9085,-4.9113,-4.9166,-4.9197,-4.9257,-4.9242,-4.9264,-4.9308,-4.9341,-4.9394,-4.9335,-4.9409,-4.9412,-4.9391,-4.9493,-4.9499,-4.958,-4.9465,-4.9467,-4.9468,0,-4.8781,-4.8837,-4.8945,-4.9005,-4.9031,-4.9082,-4.9145,-4.9197,-4.9251,-4.9269,-4.9312,-4.9323,-4.9392,-4.9361,-4.9456,-4.9416,-4.9449,-4.947,-4.9473,-4.9478,-4.9441,-4.9497,-4.9607,-4.9618,-4.9487,-4.9486,-4.9484,0,-4.8829,-4.8932,-4.901,-4.9039,-4.9111,-4.9147,-4.9179,-4.9232,-4.927,-4.9326,-4.9351,-4.9414,-4.9447,-4.9496,-4.9523,-4.9498,-4.9616,-4.9587,-4.963,-4.9629,-4.9651,-4.9648,-4.9764,-4.9678,-4.9678,-4.9677,-4.9677,0,-4.8919,-4.8984,-4.9033,-4.908,-4.9153,-4.9182,-4.9254,-4.9286,-4.9332,-4.9386,-4.9398,-4.9448,-4.9482,-4.9537,-4.9559,-4.9634,-4.965,-4.9664,-4.9669,-4.9661,-4.9659,-4.968,-4.9674,-4.9681,-4.968,-4.9679,-4.9679,0,-4.8983,-4.9019,-4.9104,-4.9167,-4.9184,-4.9235,-4.9289,-4.9335,-4.9364,-4.9432,-4.9449,-4.9494,-4.956,-4.9593,-4.9674,-4.9689,-4.9772,-4.9775,-4.9753,-4.9754,-4.9794,-4.9789,-4.9924,-4.9943,-4.9847,-4.9848,-4.9849,0,-4.9037,-4.9087,-4.9156,-4.9193,-4.9226,-4.9286,-4.9325,-4.9356,-4.9397,-4.9464,-4.9502,-4.9568,-4.9622,-4.9726,-4.9765,-4.9828,-4.983,-4.9873,-4.9839,-4.983,-4.9827,-4.9822,-4.9827,-4.9878,-4.9879,-4.9879,-4.988,0,-4.9126,-4.9142,-4.9199,-4.9263,-4.931,-4.9361,-4.9412,-4.9442,-4.9481,-4.9526,-4.9593,-4.9635,-4.9719,-4.9784,-4.985,-4.9882,-4.9887,-4.9891,-4.9904,-4.9895,-4.9879,-4.9886,-4.9766,-4.9887,-4.9886,-4.9886,-4.9885,-4.9885,-4.9185,-4.923,-4.9285,-4.9348,-4.939,-4.9438,-4.9484,-4.952,-4.9577,-4.9647,-4.9663,-4.9733,-4.9788,-4.9876,-4.9911,-4.9967,-4.9957,-4.9976,-4.9981,-4.9984,-4.9984,-4.9874,-4.9979,-4.9979,-4.9979,-4.9979,-4.9979,0,-4.9273,-4.9309,-4.9368,-4.9438,-4.9488,-4.9492,-4.9548,-4.9589,-4.9651,-4.9702,-4.9756,-4.9833,-4.9897,-4.9942,-5.0007,-5.0043,-5.0047,-5.0058,-5.0054,-5.0061,-4.999,-4.9972,-5.0054,-5.0054,-5.0054,-5.0054,-5.0054,-5.0054,-4.9324,-4.9399,-4.9422,-4.9519,-4.9555,-4.9625,-4.9657,-4.9701,-4.9741,-4.9827,-4.988,-4.991,-4.9959,-5.0028,-5.0086,-5.0098,-5.012,-5.0131,-5.0143,-5.0075,-5.0066,-5.0059,-5.0041,-5.0136,-5.0137,-5.0208,-5.0209,-5.021]},{"header":{"parameterUnit":"m.s-1","parameterCategory":1,"la1":30.2991,"la2":30.254,"lo1":-89.0895,"lo2":-89.0444,"dy":0.0017,"dx":0.0017,"nx":28,"ny":28,"refTime":"2024-03-13T09:00:00:Z","depth":0,"parameterNumber":3,"parameterNumberName":"V-component_of_WINDS"},"data":[0,0,0,0,0,0,0,0,0,0,0,0,0,0,0,0,0,0,0,0,0,0,0,0,0,0,0,0,0,0,0,0,0,0,0,0,0,0,0,0,0,0,0,0,0,0,0,0,0,0,0,0,0,0,0,0,0,0,3.4514,3.4515,0,3.465,3.4652,3.4653,3.4675,3.4674,3.4673,3.4671,3.4803,3.4808,3.4812,0,0,0,0,0,0,0,0,0,0,0,0,0,3.4268,3.4273,3.4514,3.4516,3.4517,3.465,3.4652,3.4654,3.4675,3.4674,3.4672,3.4671,3.4802,3.4807,3.4813,0,0,0,0,0,0,0,0,0,0,0,0,0,3.4386,3.4274,3.4514,3.4544,3.4548,3.4649,3.4652,3.4654,3.4675,3.4674,3.4672,3.467,3.48,3.4807,3.4814,3.4892,0,0,3.4835,3.4838,0,0,0,0,0,0,0,0,3.438,3.4395,3.4538,3.4542,3.4547,3.4644,3.4614,3.4733,3.4676,3.4627,3.4671,3.4669,3.4751,3.4762,3.4791,3.4898,3.4903,3.4835,3.484,3.4843,3.4845,0,0,0,0,0,0,0,3.4372,3.439,3.4568,3.454,3.4546,3.455,3.4565,3.4636,3.4697,3.4631,3.4633,3.4649,3.4753,3.4785,3.4794,3.4905,3.4835,3.4841,3.4846,3.4848,3.5086,3.5088,0,0,0,0,0,0,3.4359,3.4383,3.4563,3.4572,3.4458,3.4556,3.4572,3.4614,3.4696,3.4707,3.4651,3.465,3.4774,3.4786,3.4799,3.4898,3.4842,3.4849,3.4853,3.5084,3.5086,3.5089,0,0,0,0,0,0,3.4353,3.4375,3.4558,3.4478,3.4502,3.4562,3.4609,3.4618,3.4649,3.4711,3.4722,3.4672,3.4773,3.4789,3.487,3.4903,3.4852,3.4858,3.5081,3.5084,3.5087,3.5095,0,0,0,0,0,0,3.4346,3.4372,3.4403,3.4479,3.4506,3.4627,3.4611,3.4622,3.4662,3.4662,3.4734,3.4744,3.4773,3.4859,3.4877,3.4912,3.4864,3.5078,3.5083,3.5086,3.5092,3.5098,3.5103,0,0,0,0,0,3.4337,3.4398,3.4405,3.4427,3.4546,3.4629,3.4645,3.4679,3.4665,3.4696,3.4736,3.4741,3.4897,3.4867,3.4887,3.4924,3.5076,3.5081,3.5086,3.509,3.5097,3.5103,0,0,0,0,0,0,3.4321,3.4408,3.4417,3.4504,3.456,3.4633,3.4673,3.4685,3.4743,3.4741,3.4778,3.4794,3.4873,3.4907,3.4873,3.5006,3.4985,3.4994,3.4981,3.4989,3.4994,3.4985,3.487,0,0,0,0,0,3.4329,3.4391,3.4462,3.4532,3.456,3.4612,3.4649,3.4671,3.4729,3.4752,3.4798,3.4852,3.4914,3.4953,3.5012,3.5097,3.5114,3.5133,3.5138,3.5143,3.515,3.52,3.521,3.5105,3.5105,3.5104,0,0,3.4343,3.4398,3.4434,3.453,3.4576,3.4639,3.4631,3.4697,3.4743,3.4761,3.4841,3.4877,3.494,3.5024,3.5063,3.5054,3.5183,3.5149,3.5152,3.5157,3.5206,3.5216,3.5225,3.5108,3.5107,3.5107,0,0,3.4402,3.4449,3.4514,3.4561,3.4632,3.4667,3.4683,3.4755,3.4781,3.4863,3.4878,3.4933,3.5037,3.5083,3.5119,3.52,3.5207,3.5218,3.5247,3.5295,3.5303,3.5311,3.5341,3.5351,3.5225,3.5225,3.5225,0,3.441,3.4507,3.4545,3.4612,3.4655,3.4677,3.4743,3.4786,3.4871,3.49,3.4889,3.5024,3.5067,3.5163,3.5184,3.5212,3.5231,3.5209,3.53,3.5308,3.5315,3.5344,3.5355,3.5226,3.5226,3.5225,3.5225,0,3.4514,3.4582,3.4625,3.4712,3.4759,3.4824,3.4872,3.4915,3.4934,3.497,3.5053,3.5107,3.518,3.5204,3.5221,3.5303,3.5296,3.5292,3.5272,3.5326,3.5354,3.5365,3.5227,3.5227,3.5226,3.5226,0,0,3.4565,3.4675,3.469,3.4731,3.4813,3.4864,3.4932,3.5006,3.5043,3.5101,3.5159,3.5248,3.5247,3.5288,3.5311,3.5353,3.5416,3.5345,3.5347,3.5357,3.5512,3.5515,3.5528,3.5422,3.5424,3.5426,3.5507,0,3.4634,3.4758,3.4796,3.4899,3.4962,3.4987,3.5045,3.5101,3.5137,3.5195,3.5233,3.5297,3.5289,3.5315,3.5358,3.5399,3.5448,3.5394,3.5475,3.5478,3.546,3.5542,3.5545,3.562,3.5518,3.552,3.5522,0,3.4731,3.4796,3.4906,3.4983,3.5011,3.5064,3.5137,3.5192,3.5256,3.5279,3.5328,3.5348,3.5419,3.5395,3.5494,3.5456,3.5492,3.5518,3.5521,3.553,3.5503,3.5555,3.5644,3.5656,3.5539,3.5538,3.5536,0,3.4759,3.4873,3.4955,3.4989,3.508,3.5117,3.5156,3.5219,3.5262,3.5325,3.5354,3.5422,3.546,3.5513,3.5551,3.553,3.5647,3.5626,3.5668,3.5667,3.5691,3.5689,3.5788,3.5712,3.5712,3.5712,3.5712,0,3.4833,3.49,3.497,3.502,3.5096,3.514,3.5213,3.5253,3.531,3.5367,3.5391,3.5444,3.5491,3.5551,3.5581,3.5659,3.5675,3.5695,3.5703,3.5694,3.5692,3.5718,3.5714,3.5715,3.5714,3.5714,3.5713,0,3.4877,3.4926,3.5018,3.5098,3.512,3.5173,3.5241,3.529,3.5328,3.5402,3.5421,3.548,3.5552,3.5596,3.5685,3.5705,3.5792,3.5796,3.5771,3.5775,3.5815,3.5811,3.5935,3.5954,3.5864,3.5865,3.5866,0,3.4921,3.4974,3.5062,3.5104,3.5145,3.5212,3.5258,3.5302,3.5349,3.5428,3.5468,3.5542,3.5604,3.5717,3.5767,3.5836,3.5843,3.5882,3.5853,3.5844,3.5846,3.5843,3.5849,3.5886,3.5887,3.5888,3.5888,0,3.4995,3.5018,3.5085,3.5161,3.5216,3.5277,3.5337,3.537,3.5425,3.5475,3.5551,3.56,3.5694,3.5767,3.5842,3.588,3.5894,3.5897,3.5911,3.5903,3.5887,3.5898,3.5785,3.5894,3.5894,3.5893,3.5893,3.5893,3.5042,3.5091,3.5162,3.5236,3.5287,3.5345,3.5396,3.5443,3.5508,3.559,3.5612,3.5692,3.5756,3.5859,3.5899,3.5961,3.5955,3.5974,3.5979,3.5984,3.5986,3.5877,3.5975,3.5974,3.5974,3.5974,3.5974,0,3.5119,3.5167,3.5234,3.5321,3.5379,3.5391,3.5459,3.5507,3.5578,3.5638,3.57,3.5788,3.586,3.5917,3.5991,3.603,3.6039,3.6048,3.6046,3.6055,3.5986,3.5968,3.6041,3.6041,3.6041,3.6041,3.6041,3.6041,3.5166,3.5251,3.5283,3.5394,3.5441,3.5522,3.5561,3.5614,3.5663,3.5762,3.5823,3.5861,3.592,3.6,3.6066,3.6081,3.6108,3.6117,3.6132,3.6067,3.606,3.6053,3.6036,3.6122,3.6122,3.6197,3.6197,3.6198]}]]